Location: Martley
(52.2333°N, 2.3667°W)
Time: 11:40:24
(UTC+00:00)

Cosmos 1346 Rocket - Pass Details

Date: 11 December 2019
Orbit: 524 x 555 km, 81.2° (Epoch: 24 January)

Event Time Altitude Azimuth Distance (km) Brightness Sun altitude
Rises 05:38:12 0° 180° (S) 2,647 6.4 -21.6°
Reaches altitude 10° 05:40:20 10° 176° (S) 1,764 5.5 -21.3°
Maximum altitude 05:44:08 56° 98° (E) 632 3.4 -20.7°
Drops below altitude 10° 05:47:59 10° 20° (NNE) 1,787 5.5 -20.1°
Sets 05:50:10 0° 17° (NNE) 2,686 6.4 -19.8°
